• In Deutschland
  • Länderverzeichnis
  • Für 7 Tage
  • Wassertemperatur
  • Satellitenkarten
  • Wetterkarte
  • Widgets
  • user-avatar
    Anmelden

    Stündliche Wetter Cipikan

    Heute, 21 Oktober, Sonntag

    Zeit Temperatur Niederschläge Wind Luftdruck Luftfeuchtigkeit
    00:00 +3°C° 0.2 mm 1 m/S 664 mmHg 82%
    01:00 +2°C° 0.2 mm 1 m/S 664 mmHg 83%
    02:00 +2°C° 0 mm 1 m/S 664 mmHg 85%
    03:00 +2°C° 0.3 mm 1 m/S 664 mmHg 86%
    04:00 +2°C° 0.3 mm 1 m/S 664 mmHg 87%
    05:00 +2°C° 0.3 mm 1 m/S 664 mmHg 88%
    06:00 +2°C° 0.2 mm 1 m/S 664 mmHg 88%
    07:00 +2°C° 0.2 mm 1 m/S 664 mmHg 87%
    08:00 +2°C° 0.2 mm 1 m/S 665 mmHg 87%
    09:00 +3°C° 0.1 mm 1 m/S 665 mmHg 83%
    10:00 +3°C° 0.1 mm 1 m/S 665 mmHg 80%
    11:00 +4°C° 0.1 mm 1 m/S 665 mmHg 76%
    12:00 +4°C° 0.1 mm 1 m/S 665 mmHg 74%
    13:00 +3°C° 0.1 mm 2 m/S 664 mmHg 73%
    14:00 +3°C° 0 mm 2 m/S 664 mmHg 67%
    15:00 +3°C° 0 mm 2 m/S 665 mmHg 71%
    16:00 +2°C° 0 mm 2 m/S 665 mmHg 74%
    17:00 +1°C° 0 mm 2 m/S 665 mmHg 78%
    18:00 +1°C° 0.1 mm 2 m/S 665 mmHg 80%
    19:00 -1°C° 0.1 mm 2 m/S 665 mmHg 83%
    20:00 -2°C° 0.1 mm 2 m/S 665 mmHg 85%
    21:00 -2°C° 0 mm 2 m/S 665 mmHg 86%
    22:00 -2°C° 0 mm 2 m/S 665 mmHg 86%
    23:00 0°C° 0 mm 1 m/S 665 mmHg 87%

    Morgen, 22 Oktober, Montag

    Zeit Temperatur Niederschläge Wind Luftdruck Luftfeuchtigkeit
    00:00 -3°C° 0 mm 2 m/S 665 mmHg 87%
    01:00 -3°C° 0 mm 2 m/S 665 mmHg 87%
    02:00 -3°C° 0 mm 2 m/S 665 mmHg 87%
    03:00 -3°C° 0 mm 2 m/S 665 mmHg 87%
    04:00 -2°C° 0 mm 1 m/S 665 mmHg 86%
    05:00 -2°C° 0 mm 1 m/S 664 mmHg 86%
    06:00 -2°C° 0 mm 1 m/S 665 mmHg 85%
    07:00 -2°C° 0 mm 1 m/S 665 mmHg 84%
    08:00 -2°C° 0 mm 1 m/S 665 mmHg 83%
    09:00 -1°C° 0 mm 1 m/S 665 mmHg 77%
    10:00 0°C° 0 mm 1 m/S 665 mmHg 72%
    11:00 -1°C° 0 mm 2 m/S 665 mmHg 67%
    12:00 -1°C° 0 mm 2 m/S 664 mmHg 65%
    13:00 +1°C° 0 mm 2 m/S 664 mmHg 63%
    14:00 +1°C° 0 mm 2 m/S 664 mmHg 61%
    15:00 -1°C° 0 mm 2 m/S 664 mmHg 64%
    16:00 0°C° 0 mm 1 m/S 663 mmHg 68%
    17:00 0°C° 0 mm 1 m/S 663 mmHg 71%
    18:00 -1°C° 0 mm 1 m/S 663 mmHg 74%
    19:00 -1°C° 0 mm 1 m/S 663 mmHg 76%
    20:00 -2°C° 0 mm 1 m/S 663 mmHg 78%
    21:00 -2°C° 0 mm 1 m/S 663 mmHg 79%
    22:00 -3°C° 0 mm 1 m/S 663 mmHg 79%
    23:00 -3°C° 0 mm 1 m/S 663 mmHg 80%

    übermorgen, 23 Oktober, Dienstag

    Zeit Temperatur Niederschläge Wind Luftdruck Luftfeuchtigkeit
    00:00 -3°C° 0 mm 1 m/S 663 mmHg 80%
    01:00 -3°C° 0 mm 1 m/S 663 mmHg 80%
    02:00 -3°C° 0 mm 1 m/S 663 mmHg 80%
    03:00 -4°C° 0 mm 1 m/S 662 mmHg 80%
    04:00 -4°C° 0 mm 1 m/S 662 mmHg 80%
    05:00 -4°C° 0 mm 1 m/S 662 mmHg 81%
    06:00 -4°C° 0 mm 1 m/S 662 mmHg 80%
    07:00 -4°C° 0 mm 1 m/S 662 mmHg 79%
    08:00 -4°C° 0 mm 1 m/S 662 mmHg 78%
    09:00 -3°C° 0 mm 1 m/S 662 mmHg 72%
    10:00 -1°C° 0 mm 1 m/S 662 mmHg 66%
    11:00 -2°C° 0 mm 2 m/S 662 mmHg 60%
    12:00 -2°C° 0 mm 2 m/S 662 mmHg 57%
    13:00 -1°C° 0 mm 2 m/S 662 mmHg 53%
    14:00 +1°C° 0 mm 2 m/S 662 mmHg 50%
    15:00 -1°C° 0 mm 2 m/S 662 mmHg 54%
    16:00 0°C° 0 mm 1 m/S 662 mmHg 57%
    17:00 -1°C° 0 mm 1 m/S 662 mmHg 61%
    18:00 -1°C° 0 mm 1 m/S 662 mmHg 62%
    19:00 -2°C° 0 mm 1 m/S 662 mmHg 64%
    20:00 -2°C° 0 mm 1 m/S 663 mmHg 66%
    21:00 -2°C° 0 mm 1 m/S 663 mmHg 66%
    22:00 -2°C° 0 mm 1 m/S 663 mmHg 66%
    23:00 -2°C° 0 mm 1 m/S 663 mmHg 67%

    24 Oktober, Mittwoch

    Zeit Temperatur Niederschläge Wind Luftdruck Luftfeuchtigkeit
    00:00 -2°C° 0 mm 1 m/S 663 mmHg 68%
    01:00 -2°C° 0 mm 1 m/S 663 mmHg 69%
    02:00 -2°C° 0 mm 1 m/S 663 mmHg 71%
    03:00 -2°C° 0 mm 1 m/S 663 mmHg 73%
    04:00 -2°C° 0 mm 1 m/S 664 mmHg 75%
    05:00 -2°C° 0 mm 1 m/S 664 mmHg 78%
    06:00 -2°C° 0 mm 1 m/S 664 mmHg 79%
    07:00 -2°C° 0 mm 1 m/S 665 mmHg 80%
    08:00 -2°C° 0 mm 1 m/S 665 mmHg 81%
    09:00 -1°C° 0 mm 1 m/S 665 mmHg 76%
    10:00 -2°C° 0 mm 2 m/S 665 mmHg 70%
    11:00 -1°C° 0 mm 2 m/S 666 mmHg 65%
    12:00 -1°C° 0 mm 2 m/S 666 mmHg 61%
    13:00 -1°C° 0 mm 3 m/S 666 mmHg 57%
    14:00 -1°C° 0 mm 3 m/S 666 mmHg 53%
    15:00 -2°C° 0 mm 3 m/S 666 mmHg 56%
    16:00 -4°C° 0 mm 3 m/S 666 mmHg 59%
    17:00 -4°C° 0 mm 2 m/S 667 mmHg 63%
    18:00 -4°C° 0 mm 2 m/S 667 mmHg 66%
    19:00 -5°C° 0 mm 2 m/S 668 mmHg 68%
    20:00 -5°C° 0 mm 2 m/S 668 mmHg 71%
    21:00 -6°C° 0 mm 2 m/S 668 mmHg 72%
    22:00 -6°C° 0 mm 2 m/S 669 mmHg 73%
    23:00 -6°C° 0 mm 2 m/S 669 mmHg 74%

    25 Oktober, Donnerstag

    Zeit Temperatur Niederschläge Wind Luftdruck Luftfeuchtigkeit
    00:00 -7°C° 0 mm 2 m/S 669 mmHg 73%
    01:00 -7°C° 0 mm 2 m/S 669 mmHg 73%
    02:00 -7°C° 0 mm 2 m/S 669 mmHg 73%
    03:00 -8°C° 0 mm 2 m/S 669 mmHg 74%
    04:00 -8°C° 0 mm 2 m/S 669 mmHg 74%
    05:00 -8°C° 0 mm 2 m/S 669 mmHg 74%
    06:00 -8°C° 0 mm 2 m/S 669 mmHg 74%
    07:00 -9°C° 0 mm 2 m/S 670 mmHg 74%
    08:00 -9°C° 0 mm 2 m/S 670 mmHg 74%
    09:00 -8°C° 0 mm 2 m/S 670 mmHg 68%
    10:00 -8°C° 0 mm 3 m/S 670 mmHg 62%
    11:00 -7°C° 0 mm 3 m/S 670 mmHg 56%
    12:00 -6°C° 0 mm 3 m/S 670 mmHg 54%
    13:00 -6°C° 0 mm 3 m/S 670 mmHg 52%
    14:00 -6°C° 0 mm 3 m/S 669 mmHg 50%
    15:00 -6°C° 0 mm 3 m/S 669 mmHg 53%
    16:00 -7°C° 0 mm 3 m/S 669 mmHg 56%
    17:00 -7°C° 0 mm 2 m/S 669 mmHg 59%
    18:00 -7°C° 0 mm 2 m/S 669 mmHg 62%
    19:00 -8°C° 0 mm 2 m/S 670 mmHg 65%
    20:00 -8°C° 0 mm 2 m/S 670 mmHg 67%
    21:00 -8°C° 0 mm 2 m/S 670 mmHg 68%
    22:00 -8°C° 0 mm 1 m/S 670 mmHg 69%
    23:00 -8°C° 0 mm 1 m/S 670 mmHg 70%

    26 Oktober, Freitag

    Zeit Temperatur Niederschläge Wind Luftdruck Luftfeuchtigkeit
    00:00 -8°C° 0 mm 1 m/S 670 mmHg 70%
    01:00 -8°C° 0 mm 1 m/S 669 mmHg 71%
    02:00 -8°C° 0 mm 1 m/S 669 mmHg 71%
    03:00 -8°C° 0 mm 1 m/S 669 mmHg 71%
    04:00 -9°C° 0 mm 1 m/S 669 mmHg 70%
    05:00 -9°C° 0 mm 1 m/S 669 mmHg 70%
    06:00 -8°C° 0 mm 1 m/S 668 mmHg 70%
    07:00 -8°C° 0 mm 1 m/S 668 mmHg 69%
    08:00 -8°C° 0 mm 1 m/S 668 mmHg 69%
    09:00 -7°C° 0 mm 1 m/S 668 mmHg 64%
    10:00 -7°C° 0 mm 2 m/S 668 mmHg 59%
    11:00 -6°C° 0 mm 2 m/S 667 mmHg 54%
    12:00 -5°C° 0 mm 2 m/S 667 mmHg 53%
    13:00 -4°C° 0 mm 2 m/S 667 mmHg 53%
    14:00 -4°C° 0 mm 3 m/S 666 mmHg 52%
    15:00 -4°C° 0 mm 2 m/S 666 mmHg 56%
    16:00 -4°C° 0 mm 2 m/S 665 mmHg 60%
    17:00 -5°C° 0 mm 2 m/S 665 mmHg 64%
    18:00 -5°C° 0 mm 2 m/S 665 mmHg 67%
    19:00 -5°C° 0 mm 2 m/S 665 mmHg 70%
    20:00 -6°C° 0 mm 2 m/S 664 mmHg 72%
    21:00 -6°C° 0 mm 2 m/S 664 mmHg 75%
    22:00 -6°C° 0 mm 2 m/S 663 mmHg 77%
    23:00 -6°C° 0 mm 2 m/S 663 mmHg 79%
    Mehr zeigen